Theta_e
343 340 339 337 322 318 309 312 318 317 316 323 324 322 318 320 318 312 333 336 340 345 349 349 354 353 352 351 350 349 349 350 351 351 352 352 351 350 349 348 348 348 349 349 349 348 348 348 349
342 342 338 327 312 307 308 315 314 318 320 323 324 324 322 319 326 327 332 338 340 346 350 348 354 353 352 352 350 349 350 350 351 351 351 351 351 349 348 348 349 348 349 349 348 349 349 349 349
342 344 329 324 314 309 307 314 316 319 322 323 323 327 325 321 328 330 337 340 346 346 336 348 354 353 352 352 352 351 351 351 351 351 352 351 350 349 349 348 349 349 349 348 348 348 348 349 349
338 327 328 316 312 316 315 317 319 319 321 325 325 320 329 334 332 336 340 343 346 349 352 353 356 356 354 353 353 353 351 352 349 350 350 350 350 348 348 348 347 346 346 347 348 347 346 347 347
337 329 314 314 313 318 320 321 322 320 322 324 326 320 323 332 338 340 342 344 343 346 351 351 355 356 356 353 352 351 350 349 350 349 348 347 347 346 344 344 341 341 342 342 345 345 345 346 346
323 322 312 308 314 318 322 324 324 323 324 325 325 325 326 337 339 340 342 342 343 341 345 351 355 356 356 355 353 352 351 350 347 346 345 344 342 340 338 337 334 334 335 336 338 339 341 342 343
319 315 308 315 315 315 320 326 323 324 324 324 329 323 330 334 340 340 340 338 335 332 331 333 352 355 355 353 351 350 347 344 343 341 342 343 339 337 333 332 331 330 331 332 333 335 337 338 338
325 322 309 316 311 309 323 325 324 323 325 334 328 318 324 334 339 339 336 332 329 327 326 327 330 336 348 346 349 347 345 343 339 338 343 343 343 343 338 337 331 329 330 331 332 334 336 339 342
326 314 308 315 314 318 325 322 328 331 327 330 329 327 335 338 338 333 327 324 325 324 326 330 329 333 335 342 346 346 345 346 342 338 340 335 327 328 328 329 325 328 330 332 336 338 340 341 342
318 311 315 322 323 322 324 324 326 325 326 327 329 334 336 335 328 323 321 321 325 323 325 330 334 335 334 331 340 339 334 336 335 331 332 327 331 329 330 333 330 338 331 339 339 340 339 332 326
323 317 321 322 326 326 324 323 328 325 322 327 326 330 331 325 323 321 321 322 321 322 326 329 334 336 335 333 334 333 333 334 334 333 333 331 331 330 328 328 328 330 332 327 329 328 326 325 325
319 323 324 325 327 325 324 326 325 327 328 332 333 331 326 322 322 322 321 322 322 322 324 327 331 334 336 335 333 332 332 332 331 332 331 330 329 328 329 328 328 327 325 328 327 325 327 327 327
320 322 325 326 326 326 328 326 326 327 332 334 333 329 324 323 323 325 326 325 325 322 323 324 330 335 336 335 333 335 334 330 334 330 331 332 329 328 327 329 326 326 326 326 326 326 326 326 325
324 324 324 326 325 327 325 326 327 329 334 332 331 328 324 324 324 325 326 325 328 328 325 325 327 333 332 335 338 335 333 333 332 331 330 332 329 329 325 328 327 325 326 326 325 324 326 326 326
325 317 319 322 324 325 327 321 322 330 333 330 329 330 325 325 327 327 329 328 327 329 330 328 331 331 334 334 332 333 330 329 331 332 330 329 330 328 327 328 326 325 326 325 322 322 323 323 324
316 318 313 321 324 323 319 311 325 331 330 327 328 329 327 326 327 329 330 330 332 329 331 331 326 330 333 333 336 333 332 333 333 332 329 328 327 329 326 326 326 325 327 323 320 320 320 320 322
315 310 313 317 323 323 321 318 326 330 329 327 328 329 329 328 329 330 330 330 330 331 331 330 330 328 331 335 334 335 335 334 334 329 327 329 326 325 326 325 326 325 324 322 319 319 319 318 319
309 311 314 315 319 320 319 321 326 327 328 327 328 329 329 329 329 332 331 331 331 332 332 331 329 332 335 334 338 335 334 333 334 328 329 329 326 325 326 324 326 323 322 321 320 318 319 318 319
315 312 311 315 320 315 317 319 324 326 326 326 327 329 327 329 332 333 331 331 332 334 333 331 330 334 333 328 326 328 326 332 332 330 330 329 327 325 327 323 323 322 322 320 319 317 315 316 317
315 312 309 316 320 316 318 316 324 326 325 325 327 327 327 328 332 332 331 333 332 334 333 331 330 332 331 333 335 333 332 333 332 332 331 330 328 327 324 326 322 323 320 318 318 316 314 313 315
312 311 312 312 315 319 318 314 319 324 326 326 327 329 328 328 331 332 330 334 334 334 333 331 331 331 332 334 334 332 336 335 329 328 326 330 328 326 327 326 325 323 320 316 317 315 314 310 312
310 316 315 315 313 305 314 305 317 321 321 324 326 327 328 329 331 333 332 332 334 334 332 331 331 331 330 333 335 333 328 325 330 328 330 331 328 327 325 325 324 324 322 319 317 317 316 314 310
312 316 315 315 313 309 307 305 316 322 319 322 325 326 327 329 330 331 330 333 333 333 330 330 332 332 331 332 334 328 327 326 328 327 330 332 331 326 323 325 325 323 320 320 319 319 316 317 313
318 316 316 316 313 303 306 306 311 315 316 317 326 326 327 327 328 331 331 333 332 331 329 329 330 331 332 331 332 333 331 329 326 328 325 324 326 326 325 324 325 324 323 321 320 320 319 318 317
318 315 305 303 304 301 312 308 311 315 317 317 320 325 326 326 328 329 328 329 328 330 330 328 329 330 331 329 330 330 331 330 329 328 324 324 323 324 326 327 325 323 323 322 322 319 320 317 316
314 312 306 298 299 303 311 304 309 319 322 321 321 323 327 327 327 330 329 330 329 331 331 329 328 329 329 329 330 331 332 327 329 328 326 325 324 324 327 326 325 324 323 319 322 320 319 319 317
312 311 316 310 310 305 306 311 316 320 320 322 321 322 325 327 329 331 330 329 331 332 333 330 329 329 329 329 330 330 330 330 328 330 330 327 327 323 325 326 325 324 323 322 323 320 320 319 318
315 317 308 308 298 298 303 305 305 314 316 320 321 322 324 328 328 329 329 332 331 333 333 332 328 328 328 328 328 328 329 329 330 330 327 327 328 327 325 322 324 324 321 320 321 321 320 318 318
311 310 314 312 308 301 299 303 317 318 319 320 321 324 325 327 328 329 332 332 332 332 330 330 327 327 326 327 329 329 329 329 329 329 329 326 328 328 324 323 322 323 320 320 319 321 320 318 318
315 314 315 308 305 308 307 306 319 325 321 318 320 325 325 327 328 330 331 331 331 330 330 329 329 325 326 327 328 329 329 329 329 330 329 330 327 328 325 324 322 320 321 320 319 318 320 318 317
Wind_Speed
8 12 10 7 9 5 15 20 13 18 20 20 23 18 21 20 13 10 7 7 10 15 14 10 7 5 4 3 2 2 3 5 5 6 7 8 9 10 10 11 11 11 10 10 9 9 9 9 9
8 16 8 4 3 13 13 17 17 15 17 19 20 20 19 20 19 14 10 6 5 14 14 8 8 6 4 3 1 2 3 4 5 6 7 8 8 8 9 10 12 13 13 13 12 12 11 10 10
9 14 7 5 7 12 13 16 13 15 13 15 16 15 13 16 15 9 8 6 24 21 11 6 9 7 3 1 1 1 3 4 6 7 8 9 9 9 10 11 12 12 13 13 13 13 13 12 12
4 10 9 19 25 19 15 10 15 16 14 19 18 15 14 15 15 11 7 7 15 13 17 13 11 9 6 2 1 3 5 5 6 7 9 9 10 11 11 12 13 14 14 14 14 13 13 13 13
13 2 5 8 21 17 13 13 17 20 16 19 20 18 16 13 11 9 7 10 11 10 12 9 13 12 8 4 4 4 4 5 7 8 7 8 8 8 9 11 13 14 14 14 14 13 13 13 13
8 7 7 6 19 15 19 15 16 20 21 17 17 18 13 10 10 10 9 7 10 5 7 9 12 11 12 11 10 11 11 9 9 8 7 5 4 5 6 8 11 13 14 15 14 14 14 14 14
9 12 19 20 21 18 17 15 14 17 8 21 23 5 10 10 10 7 11 15 12 13 12 11 13 13 15 14 13 14 11 9 7 6 5 4 2 1 4 5 11 12 12 13 13 14 15 15 15
12 11 24 14 21 11 12 19 16 14 25 14 8 4 8 5 7 9 13 13 13 11 12 12 11 6 12 10 16 14 12 7 5 3 10 11 9 6 9 3 8 9 11 11 10 13 14 16 16
17 3 9 14 17 11 13 15 18 14 17 18 11 12 10 9 14 14 12 13 10 10 11 11 11 10 8 13 11 11 11 11 10 15 17 11 7 8 9 5 1 5 9 9 9 12 15 17 17
15 3 2 11 16 16 16 18 13 12 15 15 13 12 10 13 11 11 10 10 10 11 12 12 10 11 11 9 6 4 8 6 5 8 9 7 6 7 10 7 4 5 6 9 12 12 12 15 9
14 6 14 13 12 13 11 17 15 15 11 12 12 13 13 11 10 10 11 11 12 12 9 11 10 10 12 8 5 4 5 4 4 8 7 7 5 6 6 4 6 4 11 5 7 7 5 8 5
14 13 14 11 15 13 17 14 7 14 14 10 15 12 12 12 11 10 12 12 12 12 10 11 11 8 8 7 5 6 4 4 4 5 8 6 5 8 7 4 6 5 6 6 6 5 7 7 8
10 10 11 13 13 13 14 14 11 12 11 11 11 11 11 10 10 11 12 11 11 12 10 10 9 7 5 7 6 4 4 4 4 6 7 4 6 6 8 6 6 6 6 5 4 5 6 6 7
10 12 10 10 11 8 16 14 9 9 9 10 10 10 9 9 9 10 10 10 10 9 10 8 9 7 7 4 4 4 4 4 4 5 5 6 5 5 7 6 5 6 7 5 6 8 6 5 5
26 11 21 8 12 13 10 5 9 12 12 10 9 9 8 8 10 9 9 9 9 9 7 8 6 7 6 5 6 5 5 5 4 3 8 8 6 7 9 4 6 7 9 10 10 10 11 9 6
4 9 10 12 16 17 15 8 11 13 13 11 11 9 9 7 11 9 8 8 8 7 7 5 7 6 5 5 1 3 3 3 3 4 6 9 8 7 9 5 6 8 6 9 8 9 9 9 10
16 8 16 14 7 19 11 6 17 17 15 14 14 10 11 10 12 8 6 10 8 6 5 5 5 5 5 3 3 2 1 2 2 6 6 7 8 9 7 6 6 9 5 6 7 9 9 9 8
5 5 8 13 11 7 13 12 18 18 15 15 14 13 13 11 13 12 8 8 7 6 5 6 5 4 5 4 1 2 3 3 3 6 4 6 6 9 7 7 7 8 5 7 6 8 9 9 5
15 18 16 10 5 4 8 11 21 18 14 10 10 14 10 10 18 14 10 9 8 6 6 5 5 3 5 4 5 4 4 3 3 4 5 6 6 7 5 6 7 8 6 8 9 7 10 9 8
18 7 8 8 0 4 6 4 20 19 15 12 11 9 9 11 15 13 10 10 6 7 5 5 4 4 4 3 2 1 3 1 1 3 5 6 5 6 6 5 6 6 7 9 8 9 7 8 10
7 14 16 10 7 8 11 16 12 15 15 13 13 13 9 12 17 15 12 10 9 9 7 6 4 2 3 4 2 5 2 2 3 4 5 2 4 5 5 5 3 5 5 5 5 7 8 5 7
0 8 13 16 17 11 24 5 13 13 10 12 13 13 14 15 11 14 13 12 8 10 8 8 5 2 4 4 3 3 4 4 2 3 3 2 4 5 5 5 6 5 4 5 4 4 3 4 6
12 10 12 18 10 7 18 9 11 11 13 16 15 13 11 13 15 17 13 16 13 13 9 9 6 4 3 2 2 4 4 5 4 4 6 3 4 8 7 6 5 5 5 3 1 3 4 2 3
8 7 5 5 3 6 19 13 6 10 4 3 18 14 13 11 12 13 14 15 12 12 10 10 7 6 4 2 2 1 2 2 3 3 5 4 3 5 6 6 4 4 4 2 2 2 3 4 3
20 17 2 4 5 5 2 9 9 11 9 3 1 16 14 10 13 14 15 14 12 12 10 10 9 7 5 4 4 2 1 3 6 2 4 6 4 3 4 3 3 3 3 4 5 2 3 3 5
7 1 7 9 11 7 5 4 4 4 6 4 2 1 17 15 12 15 15 14 15 13 10 7 10 6 8 6 4 3 1 4 2 5 3 4 6 3 4 2 2 4 4 5 6 2 2 2 4
1 2 9 11 14 13 2 8 7 15 8 7 3 2 6 13 8 14 18 11 12 13 11 8 8 8 7 6 5 4 4 1 3 2 2 3 5 5 5 3 2 3 2 0 4 4 3 4 4
12 10 11 5 3 9 15 9 5 13 9 5 6 5 4 9 8 6 17 13 10 12 11 8 8 8 8 7 6 5 4 5 2 3 6 3 3 3 5 6 2 4 5 4 3 4 4 5 4
13 15 7 3 2 5 8 10 5 17 11 14 6 6 7 9 10 10 16 13 10 12 13 10 8 7 8 7 5 4 3 3 3 3 4 5 4 4 5 5 5 5 5 5 4 5 6 6 6
3 13 7 2 7 12 15 1 7 2 11 8 17 3 7 8 8 13 17 15 11 11 10 11 7 8 8 8 7 6 5 4 4 4 4 3 6 5 5 5 5 6 6 6 6 6 6 6 6
Wind_Direction
186 215 216 228 261 216 71 104 71 80 72 65 66 66 65 49 45 95 120 91 79 108 121 116 119 119 120 107 43 16 1 359 359 353 352 353 353 351 349 347 344 338 334 330 323 318 316 317 318
243 250 222 1 255 90 81 89 91 97 109 113 102 85 61 76 96 109 94 87 113 97 66 68 145 146 146 134 114 353 343 345 345 348 347 346 346 350 350 347 347 344 341 337 329 321 316 311 306
264 278 269 298 84 84 93 92 101 121 111 97 79 60 74 81 67 90 116 163 78 102 128 232 177 148 151 128 108 301 335 340 342 343 341 346 351 1 5 1 358 352 345 341 337 331 324 320 312
297 20 332 222 72 60 76 81 118 114 111 106 115 78 67 67 84 76 43 55 124 137 134 212 155 145 161 167 253 13 347 337 346 1 355 6 14 14 11 13 8 0 352 348 347 342 334 324 313
74 105 293 114 107 78 62 96 76 67 77 98 97 92 84 91 94 94 58 25 82 123 138 137 136 154 144 124 62 54 29 22 30 22 19 31 37 36 29 28 16 6 358 351 351 348 340 332 323
91 82 328 321 77 86 65 52 74 75 78 64 50 85 102 123 90 75 69 70 52 76 104 129 121 131 117 103 89 78 68 56 46 39 35 39 55 68 49 48 23 1 349 344 338 337 331 326 320
166 117 251 79 46 336 91 86 72 51 53 84 113 222 113 92 111 113 69 47 37 24 25 33 130 122 113 112 107 92 83 74 65 52 24 342 294 219 90 72 25 3 346 340 335 328 319 313 304
63 74 316 91 113 238 86 79 96 101 94 110 123 150 130 126 103 90 82 48 31 33 29 29 14 75 135 126 114 109 113 96 72 35 355 309 238 346 355 33 24 356 346 343 332 321 312 303 299
74 72 243 123 164 112 88 82 73 59 74 90 146 151 118 73 45 45 38 61 41 28 40 41 16 354 5 119 117 126 139 94 47 23 350 348 11 20 322 106 312 319 319 312 312 305 295 294 287
108 175 87 97 98 96 82 107 116 108 98 98 93 96 104 79 85 76 50 49 59 32 31 40 24 3 12 33 96 78 50 84 71 56 344 10 347 4 344 7 233 336 287 2 334 331 351 359 350
108 104 71 56 64 92 101 88 106 112 92 104 122 103 96 99 91 75 71 49 47 46 37 33 31 28 5 25 23 35 46 19 58 67 3 2 353 352 351 4 338 353 8 356 335 331 15 333 337
75 61 63 59 48 67 94 105 71 106 115 116 93 107 103 90 78 63 54 55 48 45 33 45 47 35 13 356 36 32 55 16 54 64 26 15 5 2 339 353 341 359 359 341 337 335 351 328 311
78 86 88 70 69 93 84 83 90 90 95 96 119 126 107 115 106 95 88 72 49 44 33 38 53 13 44 31 4 47 352 49 27 68 27 42 1 19 336 327 352 13 334 338 342 349 319 312 312
87 49 105 112 104 101 95 118 128 128 132 136 155 122 123 101 110 89 71 66 79 45 31 22 63 37 28 52 335 28 348 36 34 73 54 5 21 20 337 328 1 1 322 322 1 348 329 314 316
7 14 326 155 122 125 112 180 123 149 170 168 148 148 121 123 92 81 85 73 52 78 47 355 64 78 8 28 350 61 5 42 32 45 65 360 28 31 336 356 16 344 324 25 11 354 340 335 320
314 351 307 155 151 111 109 260 148 168 191 164 163 159 165 125 111 123 113 99 84 60 63 52 14 22 94 334 62 75 335 34 37 46 53 4 19 30 340 4 14 343 332 40 10 343 330 329 325
172 209 232 148 163 159 162 177 194 185 198 174 174 163 175 170 136 142 147 114 103 90 60 50 65 26 330 167 268 101 84 70 17 67 44 17 13 24 355 3 22 340 355 42 21 340 332 331 346
102 42 194 123 153 182 221 157 157 185 210 177 174 184 168 195 168 156 142 117 113 103 76 78 47 12 300 317 258 63 120 26 82 79 50 37 10 30 17 355 35 351 28 35 22 342 335 323 341
48 48 358 323 99 286 275 153 167 179 204 206 171 184 192 187 134 153 158 142 139 127 101 59 79 8 324 31 14 10 0 74 13 93 69 54 16 30 37 357 24 353 7 36 13 354 341 329 8
21 58 224 249 206 295 251 217 160 167 190 199 190 227 191 149 148 155 161 158 169 120 118 88 59 44 357 31 79 280 291 341 21 83 84 76 37 26 22 9 31 333 340 40 13 3 351 348 356
324 323 321 352 326 209 262 255 164 161 178 196 200 188 227 159 160 165 170 170 171 148 133 111 89 68 38 346 19 331 190 227 41 353 57 26 67 45 24 12 25 352 31 35 22 360 1 352 341
46 256 303 354 343 30 338 329 154 160 180 192 204 202 193 171 163 163 170 165 172 142 138 134 116 20 117 6 55 331 309 27 7 8 54 284 118 92 40 32 5 17 24 46 24 359 345 346 346
328 3 53 4 5 67 289 291 121 154 195 205 200 206 202 166 172 168 174 164 165 141 164 128 137 144 128 138 4 335 28 3 3 16 312 344 134 91 54 32 9 27 5 72 26 358 330 346 315
327 82 74 301 305 64 256 241 131 201 146 306 184 187 196 168 182 164 175 139 145 146 155 140 159 150 166 197 181 119 1 21 317 323 293 355 359 108 63 26 14 20 359 7 23 340 26 351 315
306 344 340 263 219 189 282 288 83 60 53 54 114 170 167 162 164 160 141 143 143 152 152 159 164 164 169 189 187 139 299 282 271 257 29 330 347 43 67 35 12 344 348 349 8 324 108 359 321
42 310 27 300 336 329 78 85 117 72 85 66 14 278 165 173 180 163 161 156 159 157 162 165 149 170 167 185 166 150 148 309 334 72 12 334 310 24 79 18 359 333 10 9 350 321 347 313 306
328 271 295 310 328 301 208 153 339 318 144 111 145 183 177 173 177 156 159 162 150 150 155 174 168 161 151 175 157 195 184 217 287 154 232 299 356 337 13 324 327 313 325 194 320 336 323 332 297
257 6 334 80 31 342 319 48 181 265 64 96 146 171 215 145 153 188 144 139 138 153 147 174 161 175 167 187 183 199 159 215 219 271 196 219 272 290 300 304 298 281 292 219 263 296 301 286 283
34 287 58 72 287 246 313 35 35 17 76 17 337 170 179 180 197 179 140 135 154 155 163 175 179 167 173 180 192 179 183 248 240 254 288 181 237 258 275 288 287 268 272 252 219 262 274 265 278
219 336 38 274 314 318 302 10 322 103 72 116 266 212 199 206 192 149 144 142 162 164 178 163 176 199 186 168 176 184 189 214 249 261 264 281 223 241 247 276 288 298 277 267 229 244 266 268 277